{"data":{"norad_id":66509,"intl_designator":"2025-263AA","name":"STARLINK-35598","alt_names":[],"object_type":"PAYLOAD","status":"ACTIVE","operator":null,"country":"US","launch_date":"2025-11-15","launch_site_code":"AFETR","launch_vehicle":null,"mission":null,"orbit_class":"UNKNOWN","rcs_meters":null,"size_class":null,"mass_kg":null,"dimensions":null,"purposes":["comms"],"wikipedia_slug":null,"has_3d_model":false,"image_url":null,"decayed_at":null,"tle_current":{"epoch":"2026-05-24T19:04:47.092800Z","epoch_age_seconds":96026,"freshness":"FRESH","line1":"1 66509U 25263AA  26144.79498950  .00013778  00000+0  50907-3 0  9991","line2":"2 66509  42.9995 281.2899 0001116 287.3909  72.6821 15.27593245 30532","mean_motion":15.27593245,"eccentricity":0.0001116,"inclination_deg":42.9995,"raan_deg":281.2899,"arg_perigee_deg":287.3909,"mean_anomaly_deg":72.6821,"bstar":0.00050907,"rev_number":3053,"period_min":94.265931373636,"perigee_km":482.24373208909,"apogee_km":483.77513997361,"semimajor_km":6861.1464360314,"source":"CELESTRAK","updated_at":"2026-05-25T13:38:21.247609Z"}}}